Regional Weather Roundup
Issued by NWS

Home | Current Version | Previous Version | Graphics & Text | Print | Product List | Glossary On
Versions: 1 2 3 4 5 6 7 8 9 10 11 12 13 14 15 16 17 18 19 20 21 22 23 24 25 26 27 28 29 30 31 32 33 34 35 36 37 38 39 40 41 42 43 44 45 46 47 48 49 50
000
ASUS43 KIND 280759
RWRIN

WEATHER ROUNDUP FOR INDIANA
NATIONAL WEATHER SERVICE INDIANAPOLIS IN
400 AM EDT SUN MAY 28 2017

NOTE: "FAIR" INDICATES FEW OR NO CLOUDS BELOW 12,000 FEET WITH NO
SIGNIFICANT WEATHER AND/OR OBSTRUCTIONS TO VISIBILITY.

* - STATION DOES NOT REPORT WEATHER SUCH AS PRECIPITATION OR FOG.

+ - STATION NOT QUALITY CONTROLLED BY THE NATIONAL WEATHER SERVICE.
    USE DATA WITH CAUTION...ESPECIALLY DEWPOINT AND RELATIVE
    HUMIDITY OBSERVATIONS.

INZ001>003-010>013-019-020-280900-
NORTHWEST INDIANA

CITY           SKY/WX    TMP DP  RH WIND       PRES   REMARKS
MICHIGAN CITY+ MOCLDY    55  55 100 CALM      29.79F FOG
MONTICELLO +   CLOUDY    61  60  96 E3        29.77S
RENSSELAER +   CLOUDY    61  57  88 NE3       29.78F FOG

$$

LMZ046-743>745-280900-
SOUTHERN LAKE MICHIGAN

STATION/POSITION TIME  TEMP    WIND        PRES    WAVE
                       AIR SEA DIR/SP/G            HT
                 (UTC) (F)     (DEG/KT/KT) (MB)    (FT)
BURNS HARBOR     0740   58        CALM     1009.1F
MICHIGAN CITY    0730   62     100/  4/  5   N/A
5NW MICH CITY    0750   58 56  100/  4/  6   N/A     0

$$

INZ004-005-014>016-021>024-280900-
NORTH CENTRAL INDIANA

CITY           SKY/WX    TMP DP  RH WIND       PRES   REMARKS
GOSHEN         CLOUDY    59  55  87 NE5       29.81F
SOUTH BEND     CLOUDY    60  59  96 CALM      29.81F

$$

INZ006>009-017-018-025>027-280900-
NORTHEAST INDIANA

CITY           SKY/WX    TMP DP  RH WIND       PRES   REMARKS
ANGOLA *+      CLEAR     57  46  67 CALM      29.82S
FORT WAYNE     MOCLDY    60  55  83 E6        29.80F
KENDALLVILLE + CLOUDY    59  54  84 E3        29.81F

$$

INZ028-029-035-036-043>045-051>053-280900-
WEST CENTRAL INDIANA

CITY           SKY/WX    TMP DP  RH WIND       PRES   REMARKS
CRAWFORDSVL +  CLOUDY   -23 -23 100 CALM      29.77S FOG
GREENCASTLE +  CLOUDY    63  63 100 CALM      29.77S
LAFAYETTE      MOCLDY    59  59 100 CALM      29.76F FOG
TERRE HAUTE    CLOUDY    67  63  87 S5        29.76S

$$

INZ030>032-037>040-046>048-054>057-064-065-280900-
CENTRAL INDIANA

CITY           SKY/WX    TMP DP  RH WIND       PRES   REMARKS
GREENWOOD *+   CLOUDY    65  62  89 CALM      29.78S
INDIANAPOLIS   CLOUDY    66  62  87 NE5       29.75F
-EAGLE CREEK   CLOUDY    65  61  87 CALM      29.75F
KOKOMO +       MOCLDY    62  61  96 NE3       29.79F
SHELBYVILLE    CLOUDY    67  61  81 S5        29.76F

$$

INZ033-034-041-042-049-050-058-059-280900-
EAST CENTRAL INDIANA

CITY           SKY/WX    TMP DP  RH WIND       PRES   REMARKS
MUNCIE         PTCLDY    64  61  90 E3        29.78F
RICHMOND +     CLOUDY    61  61 100 CALM      29.78F FOG

$$

INZ060-061-067>069-081>083-085>088-280900-
SOUTHWEST INDIANA

CITY           SKY/WX    TMP DP  RH WIND       PRES   REMARKS
EVANSVILLE     CLOUDY    67  60  78 S3        29.81S
HUNTINGBURG *+ CLOUDY    65  61  87 SW8       29.82R

$$

INZ062-063-066-070>080-084-089>092-280900-
SOUTH CENTRAL AND SOUTHEAST INDIANA

CITY           SKY/WX    TMP DP  RH WIND       PRES   REMARKS
BLOOMINGTON    CLOUDY    65  62  90 S8        29.78S
MADISON *+     CLOUDY    63  61  94 S6        29.80F
SEYMOUR +      CLOUDY    66  63  88 S5        29.78F

$$





USA.gov is the U.S. government's official web portal to all federal, state and local government web resources and services.